This is the latest recevied weather packets stored in our database for station/object WI0K. If no packets are shown the sender has not sent any weather packets the latest 10 day(s).
| Time | Temp. | Humidity | Pressure | Rain* | Wind** | Luminosity | Snow |
|---|---|---|---|---|---|---|---|
| 1777408628 | 13.33° C | 41% | 830.1 hPa | 0 mm | - | 400 W/m² | - |
| 1777408328 | 12.78° C | 41% | 1016.9 hPa | 0 mm | - | 963 W/m² | - |
| 1777408027 | 12.22° C | 42% | 1016.8 hPa | 0 mm | - | 949 W/m² | - |
| 1777407726 | 12.22° C | 44% | 830 hPa | 0 mm | - | 795 W/m² | - |
| 1777407426 | 12.22° C | 45% | 830 hPa | 0 mm | - | 999 W/m² | - |
| 1777407125 | 12.22° C | 44% | 1016.8 hPa | 0 mm | - | 664 W/m² | - |
| 1777406824 | 12.22° C | 45% | 1016.6 hPa | 0 mm | - | 829 W/m² | - |
| 1777406524 | 12.22° C | 46% | 829.9 hPa | 0 mm | - | 829 W/m² | - |
| 1777406223 | 12.22° C | 45% | 829.9 hPa | 0 mm | - | 622 W/m² | - |
| 1777405922 | 12.22° C | 45% | 829.9 hPa | 0 mm | - | 670 W/m² | - |
| 1777405622 | 12.22° C | 41% | 829.9 hPa | 0 mm | - | 999 W/m² | - |
| 1777405321 | 12.22° C | 45% | 829.9 hPa | 0 mm | - | 999 W/m² | - |
| 1777405020 | 11.67° C | 46% | 1016.5 hPa | 0 mm | - | 999 W/m² | - |
| 1777404720 | 12.22° C | 44% | 1016.5 hPa | 0 mm | - | 999 W/m² | - |
| 1777404419 | 11.67° C | 47% | 829.8 hPa | 0 mm | - | 999 W/m² | - |
| 1777404118 | 11.67° C | 46% | 1016.5 hPa | 0 mm | - | 893 W/m² | - |
| 1777403818 | 11.67° C | 45% | 829.8 hPa | 0 mm | - | 999 W/m² | - |
| 1777403517 | 11.67° C | 45% | 829.8 hPa | 0 mm | - | 999 W/m² | - |
| 1777403216 | 11.67° C | 47% | 829.8 hPa | 0 mm | - | 999 W/m² | - |
| 1777402916 | 11.11° C | 49% | 829.8 hPa | 0 mm | - | 999 W/m² | - |
| 1777402615 | 11.11° C | 48% | 829.8 hPa | 0 mm | - | 999 W/m² | - |
| 1777402314 | 10.56° C | 50% | 829.7 hPa | 0 mm | - | 999 W/m² | - |
| 1777402014 | 10.56° C | 54% | 829.8 hPa | 0 mm | - | 323 W/m² | - |
| 1777401971 | 10.56° C | 55% | 1016.5 hPa | 0 mm | - | 946 W/m² | - |
| 1777401713 | 10.56° C | 55% | 1016.5 hPa | 0 mm | - | 946 W/m² | - |
* Rain latest hour (hover to see other rain measurements)
** Current wind speed in m/s (hover to see current wind gust speed)